Weather History for Girona, Spain

Change the Weather History Date:

Saturday, May 18, 2013

  Actual Average Record
Temperature  
Mean Temperature 58 °F -  
Max Temperature 65 °F 78 °F 84 °F (2006)
Min Temperature 51 °F 55 °F 46 °F (2005)
Degree Days  
Heating Degree Days 7    
Growing Degree Days 8 (Base 50)    
Moisture  
Dew Point 49 °F    
Average Humidity 75    
Maximum Humidity 100    
Minimum Humidity 38    
Precipitation  
Precipitation 0.01 in 0.09 in - ()
Sea Level Pressure  
Sea Level Pressure 29.62 in    
Wind  
Wind Speed 7 mph ()    
Max Wind Speed 24 mph    
Max Gust Speed 36 mph    
Visibility 6.5 miles    
Events Rain , Thunderstorm    
Averages and records for this station are not official NWS values.
T = Trace of Precipitation, MM = Missing Value Source: Averaged Metar Reports

Daily Weather History Graph

Daily Weather History Graph

Search for Another Location

Airport:

Trip Planner

Search our weather history database for the weather conditions in past years. The results will help you decide how hot, cold, wet, or windy it might be!

Date:

Astronomy

May. 18, 2013 Rise Set
Actual Time 6:25 AM CEST 9:05 PM CEST
Civil Twilight 5:53 AM CEST 9:37 PM CEST
Nautical Twilight 5:13 AM CEST 10:18 PM CEST
Astronomical Twilight 4:27 AM CEST 11:04 PM CEST
Moon 1:46 PM CEST (5/18) 2:17 AM CEST (5/18)
Length of Visible Light 15h 44m
Length of Day
14h 39m
First Quarter, 52% of the Moon is Illuminated
May 18
First Quarter
May 25
Full
May 31
Last Quarter
Jun 8
New
Jun 16
First Quarter

Hourly Weather History & Observations

Time (CEST) Temp. Dew Point Humidity Pressure Visibility Wind Dir Wind Speed Gust Speed Precip Events Conditions
12:00 AM 51.8 °F 50.0 °F 94% 29.65 in 6.2 mi Calm Calm - N/A   Scattered Clouds
12:30 AM 53.6 °F 50.0 °F 88% 29.65 in 6.2 mi Calm Calm - N/A   Scattered Clouds
1:00 AM 53.6 °F 51.8 °F 94% 29.62 in 6.2 mi Calm Calm - N/A Rain Light Rain
1:30 AM 53.6 °F 51.8 °F 94% 29.62 in 6.2 mi Calm Calm - N/A   Mostly Cloudy
2:00 AM 52 °F 50 °F 92% 29.62 in - WNW 2.3 mph - -   Unknown Precipitation
2:00 AM 51.8 °F 51.8 °F 100% 29.62 in 6.2 mi Variable 2.3 mph - N/A   Mostly Cloudy
2:30 AM 53.6 °F 51.8 °F 94% 29.59 in 6.2 mi Variable 1.2 mph - N/A   Mostly Cloudy
3:00 AM 51.8 °F 51.8 °F 100% 29.59 in 6.2 mi Variable 2.3 mph - N/A   Mostly Cloudy
3:30 AM 51.8 °F 51.8 °F 100% 29.59 in 6.2 mi NE 3.5 mph - N/A   Mostly Cloudy
4:00 AM 53.6 °F 53.6 °F 100% 29.56 in 6.2 mi NE 4.6 mph - N/A   Mostly Cloudy
4:30 AM 55.4 °F 55.4 °F 100% 29.53 in 6.2 mi ESE 5.8 mph - N/A   Mostly Cloudy
5:00 AM 57.2 °F 55.4 °F 94% 29.53 in 6.2 mi South 10.4 mph - N/A Thunderstorm Mostly Cloudy
5:07 AM 57.2 °F 57.2 °F 100% 29.53 in 3.7 mi South 13.8 mph - N/A Rain , Thunderstorm Thunderstorms and Rain
5:30 AM 57.2 °F 57.2 °F 100% 29.53 in 5.0 mi South 19.6 mph - N/A Rain , Thunderstorm Thunderstorms and Rain
5:41 AM 57.2 °F 57.2 °F 100% 29.53 in 6.2 mi SSW 10.4 mph - N/A   Mostly Cloudy
6:00 AM 57.2 °F 57.2 °F 100% 29.53 in 6.2 mi SSW 12.7 mph - N/A   Mostly Cloudy
6:30 AM 57.2 °F 57.2 °F 100% 29.53 in 6.2 mi SSW 10.4 mph - N/A   Mostly Cloudy
7:00 AM 57.2 °F 57.2 °F 100% 29.53 in 6.2 mi SSW 5.8 mph - N/A   Mostly Cloudy
7:30 AM 55.4 °F 53.6 °F 94% 29.56 in 6.2 mi Variable 2.3 mph - N/A   Scattered Clouds
8:00 AM 55 °F 53 °F 89% 29.56 in 12 mi WSW 2.3 mph - - Rain Light Rain Showers
8:00 AM 55.4 °F 53.6 °F 94% 29.56 in 6.2 mi Variable 2.3 mph - N/A   Mostly Cloudy
8:30 AM 55.4 °F 53.6 °F 94% 29.59 in 6.2 mi SW 5.8 mph - N/A   Mostly Cloudy
9:00 AM 57.2 °F 51.8 °F 82% 29.59 in 6.2 mi SW 10.4 mph - N/A   Mostly Cloudy
9:30 AM 57.2 °F 51.8 °F 82% 29.59 in 6.2 mi SW 15.0 mph - N/A   Mostly Cloudy
10:00 AM 55.4 °F 51.8 °F 88% 29.59 in 6.2 mi SW 10.4 mph - N/A   Mostly Cloudy
10:30 AM 59.0 °F 51.8 °F 77% 29.62 in 6.2 mi SSW 15.0 mph - N/A   Scattered Clouds
11:00 AM 60.8 °F 53.6 °F 77% 29.62 in 6.2 mi SSW 17.3 mph - N/A   Scattered Clouds
11:30 AM 60.8 °F 50.0 °F 68% 29.62 in 6.2 mi SSW 19.6 mph - N/A   Scattered Clouds
12:00 PM 62.6 °F 48.2 °F 59% 29.62 in 6.2 mi SSW 19.6 mph - N/A   Scattered Clouds
12:30 PM 64.4 °F 42.8 °F 45% 29.62 in 6.2 mi SW 15.0 mph - N/A   Scattered Clouds
1:00 PM 64.4 °F 44.6 °F 49% 29.62 in 6.2 mi SSW 17.3 mph - N/A   Scattered Clouds
1:30 PM 62.6 °F 44.6 °F 52% 29.62 in 6.2 mi West 11.5 mph - N/A   Scattered Clouds
2:00 PM 62 °F 43 °F 38% 29.63 in 16 mi WSW 9.2 mph - -   Partly Cloudy
2:00 PM 62.6 °F 42.8 °F 48% 29.62 in 6.2 mi WSW 8.1 mph - N/A   Scattered Clouds
2:30 PM 62.6 °F 42.8 °F 48% 29.62 in 6.2 mi SW 8.1 mph - N/A   Scattered Clouds
3:00 PM 64.4 °F 39.2 °F 40% 29.62 in 6.2 mi SSW 20.7 mph 35.7 mph N/A   Scattered Clouds
3:30 PM 64.4 °F 46.4 °F 52% 29.62 in 6.2 mi SSW 16.1 mph - N/A   Scattered Clouds
4:00 PM 64.4 °F 48.2 °F 56% 29.62 in 6.2 mi SSW 17.3 mph - N/A   Scattered Clouds
4:30 PM 62.6 °F 48.2 °F 59% 29.65 in 6.2 mi SSW 18.4 mph - N/A   Scattered Clouds
5:00 PM 62.6 °F 50.0 °F 63% 29.65 in 6.2 mi SSW 24.2 mph - N/A   Scattered Clouds
5:30 PM 62.6 °F 48.2 °F 59% 29.65 in 6.2 mi SSW 18.4 mph 31.1 mph N/A   Scattered Clouds
6:00 PM 62.6 °F 46.4 °F 55% 29.65 in 6.2 mi SW 18.4 mph - N/A   Scattered Clouds
6:30 PM 60.8 °F 42.8 °F 52% 29.65 in 6.2 mi SSW 24.2 mph - N/A   Scattered Clouds
7:00 PM 60.8 °F 42.8 °F 52% 29.68 in 6.2 mi WSW 17.3 mph 28.8 mph N/A   Partly Cloudy
7:30 PM 60.8 °F 41.0 °F 48% 29.68 in 6.2 mi SW 10.4 mph - N/A   Partly Cloudy
8:00 PM 58 °F 41 °F 41% 29.69 in 12 mi SSW 17.3 mph - -   Scattered Clouds
8:00 PM 59.0 °F 42.8 °F 55% 29.68 in 6.2 mi SSW 15.0 mph - N/A   Partly Cloudy
8:30 PM 57.2 °F 42.8 °F 59% 29.71 in 6.2 mi SSW 13.8 mph 26.5 mph N/A   Partly Cloudy
9:00 PM 55.4 °F 41.0 °F 58% 29.71 in 6.2 mi SW 10.4 mph - N/A   Partly Cloudy
9:30 PM 53.6 °F 42.8 °F 67% 29.74 in 6.2 mi SSW 9.2 mph - N/A   Partly Cloudy
10:00 PM 53.6 °F 44.6 °F 72% 29.74 in 6.2 mi SSW 6.9 mph - N/A   Partly Cloudy
10:30 PM 51.8 °F 44.6 °F 76% 29.74 in 6.2 mi Variable 1.2 mph - N/A   Partly Cloudy
11:00 PM 51.8 °F 42.8 °F 71% 29.77 in 6.2 mi West 3.5 mph - N/A   Partly Cloudy
11:30 PM 53.6 °F 42.8 °F 67% 29.77 in 6.2 mi WSW 1.2 mph - N/A   Scattered Clouds